Weather History for MROC - September, 2011

Change the Weather History Date:

Saturday, September 17, 2011

  Actual Average Record
Temperature  
Mean Temperature 71 °F -  
Max Temperature 78 °F 78 °F 87 °F (2001)
Min Temperature 64 °F 64 °F 62 °F (1996)
Cooling Degree Days 6    
Growing Degree Days 21 (Base 50)    
Moisture  
Dew Point 69 °F    
Average Humidity 95    
Maximum Humidity 100    
Minimum Humidity 69    
Precipitation  
Precipitation 0.00 in 0.45 in - ()
Sea Level Pressure  
Sea Level Pressure 29.99 in    
Wind  
Wind Speed 2 mph ()    
Max Wind Speed 10 mph    
Max Gust Speed -    
Visibility 6.6 miles    
Events Rain    
Averages and records for this station are not official NWS values.
T = Trace of Precipitation, MM = Missing Value Source: Averaged Metar Reports

Daily Weather History Graph

Daily Weather History Graph

Search for Another Location

Airport or City:

Trip Planner

Search our weather history database for the weather conditions in past years. The results will help you decide how hot, cold, wet, or windy it might be!

Date:

Astronomy

Sep. 17, 2011 Rise Set
Actual Time 5:26 AM CST 5:36 PM CST
Civil Twilight 5:05 AM CST 5:57 PM CST
Nautical Twilight 4:41 AM CST 6:21 PM CST
Astronomical Twilight 4:16 AM CST 6:46 PM CST
Moon 9:14 PM CST (9/17) 9:21 AM CST (9/17)
Length of Visible Light 12h 51m
Length of Day
12h 09m
Waning Gibbous, 76% of the Moon is Illuminated
Sep 17
Waning Gibbous
Sep 20
Last Quarter
Sep 27
New
Oct 3
First Quarter
Oct 11
Full

Hourly Weather History & Observations

Time (CST) Temp. Dew Point Humidity Pressure Visibility Wind Dir Wind Speed Gust Speed Precip Events Conditions
12:00 AM 68 °F 68 °F 100% 29.86 in 9 mi Calm Calm - -   Overcast
12:00 AM 68.0 °F 68.0 °F 100% 30.05 in 6.2 mi Calm Calm - N/A   Overcast
1:00 AM 66.2 °F 66.2 °F 100% 30.04 in 6.2 mi Calm Calm - N/A   Overcast
2:00 AM 66.2 °F 66.2 °F 100% 30.02 in 6.2 mi Calm Calm - N/A   Overcast
2:10 AM 66.2 °F 66.2 °F 100% 30.02 in 0.7 mi Calm Calm - N/A   Mostly Cloudy
3:00 AM 66 °F 66 °F 100% 29.85 in 1 mi Calm Calm - -   Mist
3:00 AM 66.2 °F 66.2 °F 100% 30.01 in 6.2 mi Calm Calm - N/A   Mostly Cloudy
4:00 AM 66.2 °F 66.2 °F 100% 29.99 in 6.2 mi Calm Calm - N/A   Scattered Clouds
5:00 AM 66.2 °F 66.2 °F 100% 30.00 in 6.2 mi Calm Calm - N/A   Scattered Clouds
6:00 AM 64 °F 64 °F 100% 29.88 in 9 mi NE 3.5 mph - -   Partly Cloudy
6:00 AM 64.4 °F 64.4 °F 100% 30.02 in - NE 3.5 mph - N/A   Clear
7:00 AM 66.2 °F 66.2 °F 100% 30.02 in 6.2 mi East 2.3 mph - N/A   Mostly Cloudy
8:00 AM 71.6 °F 69.8 °F 94% 30.04 in 6.2 mi East 3.5 mph - N/A   Mostly Cloudy
9:00 AM 75 °F 68 °F 73% 29.88 in 12 mi Calm Calm - -   Overcast
9:00 AM 75.2 °F 68.0 °F 78% 30.04 in 6.2 mi Calm Calm - N/A   Mostly Cloudy
10:00 AM 77.0 °F 66.2 °F 69% 30.05 in 6.2 mi SE 5.8 mph - N/A   Unknown
11:00 AM 75.2 °F 73.4 °F 94% 30.04 in 6.2 mi SW 6.9 mph - N/A   Overcast
12:00 PM 77 °F 73 °F 85% 29.85 in 12 mi WSW 10.4 mph - - Rain Light Rain Showers
12:00 PM 77.0 °F 73.4 °F 89% 30.02 in 6.2 mi WSW 10.4 mph - N/A   Overcast
1:00 PM 75.2 °F 73.4 °F 94% 30.00 in 6.2 mi WSW 8.1 mph - N/A   Overcast
2:00 PM 73.4 °F 71.6 °F 94% 29.98 in 6.2 mi WSW 10.4 mph - N/A   Overcast
3:00 PM 73 °F 72 °F 94% 29.81 in 12 mi West 6.9 mph - -   Overcast
3:00 PM 73.4 °F 71.6 °F 94% 29.97 in 6.2 mi West 6.9 mph - N/A   Mostly Cloudy
4:00 PM 75.2 °F 71.6 °F 89% 29.96 in 6.2 mi West 5.8 mph - N/A   Mostly Cloudy
5:00 PM 71.6 °F 71.6 °F 100% 29.98 in 6.2 mi WSW 6.9 mph - N/A   Mostly Cloudy
6:00 PM 70 °F 70 °F 99% 29.86 in 12 mi Calm Calm - -   Overcast
6:00 PM 69.8 °F 69.8 °F 100% 30.01 in 6.2 mi Calm Calm - N/A   Mostly Cloudy
7:00 PM 69.8 °F 69.8 °F 100% 30.04 in 6.2 mi Calm Calm - N/A   Mostly Cloudy
8:00 PM 69.8 °F 69.8 °F 100% 30.06 in 4.3 mi WSW 3.5 mph - N/A   Mostly Cloudy
9:00 PM 68.0 °F 68.0 °F 100% 30.08 in 0.9 mi Calm Calm - N/A Rain Light Rain
9:56 PM 68.0 °F 68.0 °F 100% 30.09 in - North - - N/A Rain Light Rain
11:00 PM 68.0 °F 68.0 °F 100% 30.08 in 6.2 mi Calm Calm - N/A   Mostly Cloudy